Location: Wells
(51.2093°N, 2.6446°W)
Time: 07:16:14
(UTC+01:00)

PCSat - Pass Details

Date: 15 March 2026
Orbit: 780 x 790 km, 67.1° (Epoch: 13 April)

Event Time Altitude Azimuth Distance (km) Brightness Sun altitude
Exits shadow 02:11:45 17° 337° (NNW) 1,944 11.8 -35.6°
Maximum altitude 02:12:26 17° 346° (NNW) 1,926 11.9 -35.5°
Drops below altitude 10° 02:15:54 10° 26° (NNE) 2,365 12.8 -35.2°
Sets 02:19:13 0° 46° (NE) 3,296 13.8 -34.9°
